This is the latest recevied weather packets stored in our database for station/object DL5TW-13. If no packets are shown the sender has not sent any weather packets the latest 10 day(s).
| Time | Temp. | Humidity | Pressure | Rain* | Wind** | Luminosity | Snow |
|---|---|---|---|---|---|---|---|
| 1778137946 | 10° C | 93% | 1005.4 hPa | 1.02 mm | - | - | - |
| 1778137645 | 9.44° C | 93% | 1005.4 hPa | 1.02 mm | - | - | - |
| 1778137345 | 9.44° C | 93% | 1005.3 hPa | 1.02 mm | - | - | - |
| 1778137045 | 8.89° C | 93% | 1005.4 hPa | 1.02 mm | - | - | - |
| 1778136744 | 8.89° C | 93% | 1005.4 hPa | 0.51 mm | - | - | - |
| 1778136444 | 8.89° C | 93% | 1005.4 hPa | 0.51 mm | - | - | - |
| 1778136144 | 8.89° C | 93% | 1005.2 hPa | 0.51 mm | - | - | - |
| 1778135844 | 8.89° C | 93% | 1005.1 hPa | 0.51 mm | - | - | - |
| 1778135543 | 8.89° C | 93% | 1005.3 hPa | 0.51 mm | - | - | - |
| 1778135243 | 8.89° C | 93% | 1005.2 hPa | 0.51 mm | - | - | - |
| 1778134943 | 8.89° C | 93% | 1005.1 hPa | 1.02 mm | - | - | - |
| 1778134642 | 8.89° C | 93% | 1005.1 hPa | 0.51 mm | - | - | - |
| 1778134342 | 8.89° C | 93% | 1005.1 hPa | 0.51 mm | - | - | - |
| 1778134042 | 8.89° C | 93% | 1004.9 hPa | 0.51 mm | - | - | - |
| 1778133742 | 8.89° C | 92% | 1005.1 hPa | 0.51 mm | - | - | - |
| 1778133441 | 8.89° C | 92% | 1005 hPa | 1.02 mm | - | - | - |
| 1778133141 | 8.89° C | 92% | 1004.9 hPa | 2.03 mm | - | - | - |
| 1778132841 | 8.89° C | 92% | 1004.8 hPa | 2.03 mm | - | - | - |
| 1778132540 | 8.89° C | 92% | 1004.9 hPa | 2.03 mm | - | - | - |
| 1778132240 | 8.89° C | 92% | 1005 hPa | 2.03 mm | - | - | - |
| 1778131940 | 8.89° C | 92% | 1005 hPa | 2.03 mm | - | - | - |
| 1778131639 | 8.89° C | 92% | 1004.8 hPa | 1.52 mm | - | - | - |
| 1778131339 | 8.89° C | 92% | 1004.8 hPa | 2.03 mm | - | - | - |
| 1778131039 | 8.89° C | 92% | 1004.5 hPa | 2.03 mm | - | - | - |
| 1778130739 | 8.89° C | 92% | 1004.6 hPa | 2.03 mm | - | - | - |
* Rain latest hour (hover to see other rain measurements)
** Current wind speed in m/s (hover to see current wind gust speed)